sat.trackr.live / text

‹ back to catalog

IRIDE-MS2-HEO-5

NORAD 64571 · 2025-135AV

PAYLOAD ACTIVE UNKNOWN

§ Identity

Operator
Country
IT
Launch date
2025-06-23
Launch site
AFWTR
Launch vehicle
Mass (kg)
RCS (m²)

External: N2YO · Heavens-Above · Gunter

§ Orbital elements

Epoch: 2026-09-21T21:43:48.495360Z

Period
96.52 min
Inclination
97.7807°
Eccentricity
0.0001982
Mean motion
14.91970656 rev/d
Perigee alt
590.4 km
Apogee alt
593.2 km
Semi-major
6,969.9 km
B*
9.0599e-5
RAAN
17.7962°
Arg perigee
68.1798°
Mean anomaly
291.9632°
Rev number
6,830

§ Raw data

IRIDE-MS2-HEO-51 64571U 25135AV  26264.90542240  .00000862  00000+0  90599-4 0  99962 64571  97.7807  17.7962 0001982  68.1798 291.9632 14.91970656 68301

JSON: /api/v1/satellites/64571 · /tle

For live sub-satellite position, see the globe view (requires WebGL).

§ Visibility from observer

Set your observer location to see the next 7 days of passes ≥ 10°. The values pass through the URL so the page stays shareable.

No JS? Fill the form by hand. The geolocation button needs JavaScript.

§ Radio — SatNOGS DB

ModeDescriptionDownlinkUplink
FM Mode S - Transmitter 2.264 GHz
UNKNOWN S-band telemetry 2.264 GHz

2 transmitters · refreshed weekly from db.satnogs.org